User: anonymous   Login
Location: Unspecified
(0.0000°N, 0.0000°E)
Time: 17:20:07
(UTC+00:00)
Language:

WGS 5 (USA 243) - Orbit

View from above orbital plane
View from above orbital plane
View from above satellite
View from above satellite

Ground track
Ground track

The orbit data is extracted from the following two-line orbital elements,

1 39168U 13024A   20056.56577215 -.00000293 +00000-0 +00000-0 0  9993
2 39168 000.0079 138.8595 0000125 351.5619 175.6308 01.00270349024723
Epoch (UTC): 25 February 2020 13:34:42
Eccentricity: 0.0000125
inclination: 0.0079°
perigee height: 35786 km
apogee height: 35787 km
right ascension of ascending node: 138.8595°
argument of perigee: 351.5619°
revolutions per day: 1.00270349
mean anomaly at epoch: 175.6308°
orbit number at epoch: 2472

The dashed part of the orbit path shows where the satellite is in the earth's shadow,  

DLR